Weather Roundup
Issued by NWS

Home | Current Version | Previous Version | Text Only | Print | Product List | Glossary On
Versions: 1 2 3 4 5 6 7 8 9 10 11 12 13 14 15 16 17 18 19 20 21 22 23 24 25 26 27 28 29 30 31 32 33 34 35 36 37 38 39 40 41 42 43 44 45 46 47 48 49 50
000
NZUS93 KARX 250759
HRRWXR

CURRENT HOURLY OBSERVATIONS ACROSS
MUCH OF THE UPPER MISSISSIPPI VALLEY
NATIONAL WEATHER SERVICE LA CROSSE WI
300 AM CDT SAT OCT 25 2014


...SOUTHEAST MINNESOTA...


CITY           SKY/WX    TMP DP  RH WIND       PRES   REMARKS
ROCHESTER      CLEAR     51  45  79 NW9       29.96R
ROCHESTER/MAYO FAIR      55  44  65 W13       29.95R
WINONA         CLEAR     54  52  94 CALM      29.92R
AUSTIN         CLEAR     52  45  76 NW9       29.97R
ALBERT LEA     CLEAR     52  43  71 W6        29.98R
DODGE CENTER   PTCLDY    54  45  71 NW9       29.96R
PRESTON        CLEAR     52  46  79 NW9       29.95R
OWATONNA       CLEAR     48  41  76 CALM      29.97R
FARIBAULT      PTCLDY    54  43  66 W6        29.97R
$$

...ELSEWHERE IN MINNESOTA...


CITY           SKY/WX    TMP DP  RH WIND       PRES   REMARKS
MINNEAPOLIS    MOCLDY    60  38  43 NW14      29.94R
INTNL FALLS    CLEAR     48  33  56 W14       29.79R
DULUTH         CLEAR     53  34  48 W15       29.81R
RED WING       PTCLDY    46  45  93 W5        29.92R
REDWOOD FALLS  CLOUDY    58  37  45 NW10      30.01R
MANKATO        PTCLDY    54  37  54 NW12      29.98R
WORTHINGTON    MOCLDY    55  39  54 NW7       30.05S
FAIRMONT       MOCLDY    57   3  11 NW10      30.01R
$$

...SOUTHWEST WISCONSIN...


CITY           SKY/WX    TMP DP  RH WIND       PRES   REMARKS
LA CROSSE      CLEAR     56  53  90 CALM      29.91R FOG
PRAIRIE DU CHI PTCLDY    58  55  91 W5        29.92S FOG
BOSCOBEL       CLEAR     56  54  93 S7        29.92R FOG
LONE ROCK      NOT AVBL
PLATTEVILLE    CLOUDY    58  58  97 W13       29.93S
FORT MC COY    CLEAR     54  53  97 W5        29.90S FOG
VIROQUA        CLOUDY    55  55 100 W7        29.92R
WIS DELLS      PTCLDY    56  53  89 W7        29.88S FOG
$$

...ELSEWHERE IN WISCONSIN...


CITY           SKY/WX    TMP DP  RH WIND       PRES   REMARKS
MILWAUKEE      MOCLDY    55  49  80 W7        29.87S
MADISON        CLOUDY    59  55  87 W8G16     29.89S
GREEN BAY      CLOUDY    54  52  93 S5        29.80F FOG
EAU CLAIRE     NOT AVBL
BLACK RVR FLS    N/A     55  55 100 W6        29.89R FOG
MEDFORD        MOCLDY    52  51  97 W8        29.85R FOG
WAUSAU         MOCLDY    55  52  89 W13       29.83R
WIS RAPIDS     CLOUDY    55  53  93 W10       29.87S FOG
MARSHFIELD     PTCLDY    54  52  93 W9        29.86R FOG
RICE LAKE      CLEAR     47  46  96 W5        29.89R
$$

...NORTHEAST IOWA...


CITY           SKY/WX    TMP DP  RH WIND       PRES   REMARKS
DECORAH        CLEAR     55  54  94 W5        29.93S FOG
MASON CITY     CLEAR     48  42  80 W10       30.00R
CHARLES CITY   PTCLDY    50  50 100 W9        29.97R
OELWEIN        FOG       52  52 100 SW5       29.96S VSB<1/4
$$

...ELSEWHERE IN IOWA...


CITY           SKY/WX    TMP DP  RH WIND       PRES   REMARKS
DES MOINES     CLEAR     53  51  93 CALM      30.00R FOG
IOWA CITY      FOG       53  53 100 CALM      29.98R VSB 1/4
FORT DODGE     CLEAR     50  43  76 CALM      30.02R
$$

...NORTHERN ILLINOIS...


CITY           SKY/WX    TMP DP  RH WIND       PRES   REMARKS
CHICAGO-OHARE  CLOUDY    57  50  77 SW6       29.89S
CHICAGO-MIDWAY MOCLDY    57  52  83 SW6       29.89F
MOLINE         FOG       51  50  96 W3        29.95R VSB 1/4
ROCKFORD       MOCLDY    56  54  93 W7        29.95R FOG
PEORIA         MOCLDY    55  49  80 SW5       29.94F
$$

NOTE: "FAIR" INDICATES FEW OR NO CLOUDS BELOW 12,000 FEET WITH NO
SIGNIFICANT WEATHER AND/OR OBSTRUCTIONS TO VISIBILITY. WIND
SPEEDS ARE IN MILES-PER-HOUR.



USA.gov is the U.S. government's official web portal to all federal, state and local government web resources and services.